User: anonymous   Login
Location: Unspecified
(0.0000°N, 0.0000°E)
Time: 20:30:02
(UTC+00:00)
Language:

PicSat - Orbit

View from above orbital plane
View from above orbital plane
View from above satellite
View from above satellite

Ground track
Ground track

The orbit data is extracted from the following two-line orbital elements,

1 43131U 18004W   18350.80523347  .00001264  00000-0  56038-4 0  9993
2 43131  97.5134  53.8857 0009934 169.9597 190.1840 15.23443236 51518
Epoch (UTC): 16 December 2018 19:19:32
Eccentricity: 0.0009934
inclination: 97.5134°
perigee height: 488 km
apogee height: 502 km
right ascension of ascending node: 53.8857°
argument of perigee: 169.9597°
revolutions per day: 15.23443236
mean anomaly at epoch: 190.1840°
orbit number at epoch: 5151

The dashed part of the orbit path shows where the satellite is in the earth's shadow,  

DLR